When you browse on this site, cookies collect data to enhance your experience and personalize the content and advertising you see.
Visit our Privacy Policy to learn more. By continuing to use the site, you agree to this use of cookies and data.
  • In Hungary
  • List of Countries
  • For 7 days
  • Water Temperature
  • Satellite Maps
  • Weather Map
  • News
  • Weather Widgets
  • user-avatar
    Login

    Hourly Weather Dworzno

    Today, 9 December, Sunday

    Time Temperature Precipitation Wind Pressure Humidity
    00:00 +1°C° 0 mm 6 mps 736 mmHg 80%
    01:00 +1°C° 0 mm 5 mps 735 mmHg 83%
    02:00 +1°C° 0 mm 5 mps 734 mmHg 83%
    03:00 +1°C° 0 mm 5 mps 734 mmHg 84%
    04:00 +1°C° 0 mm 5 mps 733 mmHg 85%
    05:00 +1°C° 0 mm 5 mps 733 mmHg 85%
    06:00 +1°C° 0 mm 6 mps 732 mmHg 85%
    07:00 +1°C° 0 mm 5 mps 731 mmHg 88%
    08:00 +1°C° 0.2 mm 6 mps 731 mmHg 85%
    09:00 +2°C° 0.2 mm 6 mps 730 mmHg 82%
    10:00 +2°C° 0.2 mm 7 mps 730 mmHg 79%
    11:00 +3°C° 0.3 mm 7 mps 729 mmHg 79%
    12:00 +4°C° 0.3 mm 6 mps 729 mmHg 79%
    13:00 +5°C° 0 mm 5 mps 729 mmHg 78%
    14:00 +5°C° 0.3 mm 5 mps 729 mmHg 80%
    15:00 +5°C° 0.3 mm 5 mps 729 mmHg 82%
    16:00 +5°C° 0.3 mm 5 mps 729 mmHg 85%
    17:00 +5°C° 0.2 mm 5 mps 730 mmHg 85%
    18:00 +5°C° 0.2 mm 5 mps 730 mmHg 86%
    19:00 +3°C° 0.2 mm 5 mps 730 mmHg 86%
    20:00 +3°C° 0.2 mm 5 mps 731 mmHg 87%
    21:00 +3°C° 0.2 mm 5 mps 731 mmHg 87%
    22:00 +3°C° 0.2 mm 5 mps 731 mmHg 87%
    23:00 +3°C° 0.2 mm 5 mps 731 mmHg 87%

    Tomorrow, 10 December, Monday

    Time Temperature Precipitation Wind Pressure Humidity
    00:00 +3°C° 0.2 mm 5 mps 731 mmHg 87%
    01:00 +3°C° 0.2 mm 5 mps 732 mmHg 87%
    02:00 +3°C° 0.4 mm 5 mps 732 mmHg 86%
    03:00 +3°C° 0.4 mm 5 mps 732 mmHg 85%
    04:00 +3°C° 0.4 mm 6 mps 732 mmHg 84%
    05:00 +3°C° 0.4 mm 6 mps 732 mmHg 82%
    06:00 +3°C° 0.4 mm 7 mps 732 mmHg 81%
    07:00 +2°C° 0.4 mm 7 mps 733 mmHg 80%
    08:00 +2°C° 0.2 mm 7 mps 733 mmHg 76%
    09:00 +2°C° 0.2 mm 7 mps 734 mmHg 73%
    10:00 +1°C° 0.2 mm 8 mps 735 mmHg 70%
    11:00 +2°C° 0 mm 7 mps 735 mmHg 69%
    12:00 +2°C° 0 mm 7 mps 736 mmHg 68%
    13:00 +2°C° 0 mm 7 mps 736 mmHg 67%
    14:00 +2°C° 0 mm 6 mps 737 mmHg 68%
    15:00 +2°C° 0 mm 6 mps 737 mmHg 69%
    16:00 +2°C° 0 mm 5 mps 738 mmHg 69%
    17:00 +1°C° 0.1 mm 5 mps 738 mmHg 71%
    18:00 +1°C° 0.1 mm 5 mps 738 mmHg 72%
    19:00 0°C° 0.1 mm 5 mps 738 mmHg 73%
    20:00 0°C° 0 mm 5 mps 738 mmHg 75%
    21:00 0°C° 0 mm 5 mps 739 mmHg 77%
    22:00 -1°C° 0 mm 5 mps 739 mmHg 78%
    23:00 -1°C° 0 mm 4 mps 739 mmHg 80%

    Day after tomorrow, 11 December, Tuesday

    Time Temperature Precipitation Wind Pressure Humidity
    00:00 -1°C° 0 mm 4 mps 739 mmHg 82%
    01:00 -2°C° 0 mm 4 mps 739 mmHg 84%
    02:00 -2°C° 0 mm 4 mps 739 mmHg 85%
    03:00 -2°C° 0 mm 4 mps 739 mmHg 86%
    04:00 -2°C° 0 mm 4 mps 739 mmHg 88%
    05:00 -2°C° 0 mm 4 mps 739 mmHg 89%
    06:00 -1°C° 0 mm 3 mps 739 mmHg 90%
    07:00 -1°C° 0 mm 3 mps 739 mmHg 90%
    08:00 0°C° 0 mm 3 mps 740 mmHg 88%
    09:00 0°C° 0 mm 3 mps 740 mmHg 85%
    10:00 0°C° 0 mm 4 mps 740 mmHg 82%
    11:00 +1°C° 0 mm 3 mps 740 mmHg 82%
    12:00 +1°C° 0 mm 3 mps 740 mmHg 81%
    13:00 +2°C° 0 mm 3 mps 740 mmHg 81%
    14:00 +2°C° 0 mm 2 mps 741 mmHg 83%
    15:00 +2°C° 0 mm 2 mps 741 mmHg 86%
    16:00 +1°C° 0 mm 2 mps 741 mmHg 88%
    17:00 +1°C° 0 mm 2 mps 742 mmHg 90%
    18:00 +1°C° 0 mm 2 mps 742 mmHg 91%
    19:00 -1°C° 0 mm 2 mps 742 mmHg 92%
    20:00 -1°C° 0 mm 2 mps 742 mmHg 93%
    21:00 -1°C° 0 mm 2 mps 743 mmHg 93%
    22:00 -1°C° 0 mm 2 mps 743 mmHg 93%
    23:00 -1°C° 0 mm 2 mps 744 mmHg 93%

    12 December, Wednesday

    Time Temperature Precipitation Wind Pressure Humidity
    00:00 -1°C° 0 mm 2 mps 744 mmHg 93%
    01:00 -1°C° 0 mm 2 mps 744 mmHg 93%
    02:00 -1°C° 0 mm 2 mps 745 mmHg 93%
    03:00 -1°C° 0 mm 2 mps 745 mmHg 93%
    04:00 -1°C° 0 mm 2 mps 745 mmHg 92%
    05:00 -1°C° 0 mm 2 mps 746 mmHg 92%
    06:00 -1°C° 0 mm 2 mps 746 mmHg 92%
    07:00 -2°C° 0 mm 2 mps 746 mmHg 91%
    08:00 -1°C° 0 mm 2 mps 747 mmHg 89%
    09:00 -1°C° 0 mm 2 mps 747 mmHg 87%
    10:00 -1°C° 0 mm 2 mps 748 mmHg 85%
    11:00 +1°C° 0 mm 2 mps 748 mmHg 83%
    12:00 +1°C° 0 mm 2 mps 748 mmHg 81%
    13:00 +1°C° 0 mm 2 mps 748 mmHg 79%
    14:00 +1°C° 0 mm 2 mps 748 mmHg 82%
    15:00 -1°C° 0 mm 2 mps 748 mmHg 86%
    16:00 -2°C° 0 mm 2 mps 749 mmHg 89%
    17:00 -2°C° 0 mm 2 mps 749 mmHg 90%
    18:00 -2°C° 0 mm 2 mps 749 mmHg 90%
    19:00 -2°C° 0 mm 2 mps 749 mmHg 91%
    20:00 -2°C° 0 mm 2 mps 749 mmHg 91%
    21:00 -2°C° 0 mm 2 mps 749 mmHg 91%
    22:00 -2°C° 0 mm 2 mps 749 mmHg 91%
    23:00 -2°C° 0 mm 2 mps 749 mmHg 91%

    13 December, Thursday

    Time Temperature Precipitation Wind Pressure Humidity
    00:00 -2°C° 0 mm 2 mps 749 mmHg 91%
    01:00 -2°C° 0 mm 2 mps 749 mmHg 90%
    02:00 -2°C° 0 mm 2 mps 749 mmHg 90%
    03:00 -2°C° 0 mm 2 mps 749 mmHg 89%
    04:00 -2°C° 0 mm 2 mps 749 mmHg 88%
    05:00 -2°C° 0.1 mm 3 mps 749 mmHg 89%
    06:00 -2°C° 0.1 mm 3 mps 749 mmHg 89%
    07:00 -2°C° 0.1 mm 3 mps 749 mmHg 90%
    08:00 -2°C° 0.1 mm 3 mps 749 mmHg 89%
    09:00 -1°C° 0.1 mm 3 mps 749 mmHg 88%
    10:00 -1°C° 0.1 mm 3 mps 749 mmHg 87%
    11:00 -1°C° 0.1 mm 3 mps 749 mmHg 85%
    12:00 -1°C° 0.1 mm 3 mps 748 mmHg 84%
    13:00 -1°C° 0.1 mm 3 mps 748 mmHg 83%
    14:00 -1°C° 0.1 mm 3 mps 748 mmHg 85%
    15:00 -1°C° 0.1 mm 2 mps 748 mmHg 87%
    16:00 -1°C° 0.1 mm 2 mps 748 mmHg 89%
    17:00 -2°C° 0 mm 2 mps 748 mmHg 89%
    18:00 -2°C° 0 mm 2 mps 748 mmHg 90%
    19:00 -2°C° 0 mm 2 mps 748 mmHg 91%
    20:00 -2°C° 0 mm 2 mps 748 mmHg 91%
    21:00 -2°C° 0 mm 2 mps 748 mmHg 91%
    22:00 -2°C° 0 mm 2 mps 748 mmHg 91%
    23:00 -2°C° 0 mm 2 mps 748 mmHg 92%

    14 December, Friday

    Time Temperature Precipitation Wind Pressure Humidity
    00:00 0°C° 0 mm 1 mps 748 mmHg 93%
    01:00 -1°C° 0 mm 1 mps 748 mmHg 93%
    02:00 0°C° 0.1 mm 1 mps 748 mmHg 93%
    03:00 0°C° 0.1 mm 1 mps 748 mmHg 93%
    04:00 0°C° 0.1 mm 1 mps 748 mmHg 92%
    05:00 0°C° 0 mm 1 mps 748 mmHg 92%
    06:00 -2°C° 0 mm 2 mps 748 mmHg 93%
    07:00 -2°C° 0 mm 2 mps 748 mmHg 93%
    08:00 -2°C° 0 mm 2 mps 748 mmHg 90%
    09:00 -2°C° 0 mm 2 mps 749 mmHg 88%
    10:00 -1°C° 0 mm 2 mps 749 mmHg 85%
    11:00 -1°C° 0 mm 2 mps 749 mmHg 82%
    12:00 -1°C° 0 mm 2 mps 749 mmHg 80%
    13:00 +1°C° 0 mm 1 mps 749 mmHg 77%
    14:00 +1°C° 0 mm 1 mps 749 mmHg 79%
    15:00 -1°C° 0 mm 2 mps 749 mmHg 81%
    16:00 -2°C° 0 mm 2 mps 749 mmHg 83%
    17:00 -2°C° 0 mm 2 mps 749 mmHg 84%
    18:00 -2°C° 0 mm 2 mps 748 mmHg 84%
    19:00 -2°C° 0 mm 2 mps 748 mmHg 84%
    20:00 -2°C° 0 mm 2 mps 748 mmHg 85%
    21:00 -2°C° 0 mm 2 mps 748 mmHg 85%
    22:00 0°C° 0 mm 1 mps 749 mmHg 85%
    23:00 0°C° 0 mm 1 mps 749 mmHg 85%
    Show more